RBG251 HEGN-LEBB

Flight info

Callsign RBG251
Flight time N/A
Altitude 34000
Route BOTIX1B BOTIX V608 NABED T55 KUNKI P751 TAKRI N710 KIVIL L613 MMA P751 METRU/N0457F320 UL81 LORNO DCT NISUV DCT PEROS DCT VULKA DCT AMANO DCT RONAB DCT QUENN DCT MOROB DCT GINOX DCT CEGAM
Aircraft A21N/M-SDE3FGHIRWY/LB1

Departure

Time N/A
Airport Hurghada International Airport (HEGN)

Arrival

Time 2026-04-30 14:49
Airport Bilbao Airport (LEBB)
Time Latitude Longitude Altitude Speed Heading
2026-04-30 13:24 40.45874 9.49184 34079 ft 407 kts 290°
2026-04-30 13:24 40.47848 9.41951 34077 ft 407 kts 290°
2026-04-30 13:25 40.51769 9.27544 34081 ft 407 kts 289°
2026-04-30 13:26 40.56683 9.09354 34074 ft 407 kts 289°
2026-04-30 13:28 40.61587 8.91073 34062 ft 408 kts 289°
2026-04-30 13:28 40.63500 8.83901 33716 ft 410 kts 289°
2026-04-30 13:28 40.64481 8.80218 33453 ft 410 kts 289°
2026-04-30 13:29 40.66431 8.72879 32899 ft 413 kts 289°
2026-04-30 13:29 40.68378 8.65741 32375 ft 415 kts 290°
2026-04-30 13:30 40.71452 8.54579 31556 ft 419 kts 289°
2026-04-30 13:31 40.73513 8.47046 31015 ft 423 kts 289°
2026-04-30 13:31 40.76610 8.35679 30206 ft 427 kts 289°
2026-04-30 13:32 40.78619 8.28274 30039 ft 429 kts 289°
2026-04-30 13:33 40.82750 8.12975 30032 ft 429 kts 289°
2026-04-30 13:34 40.85884 8.01302 30023 ft 430 kts 289°
2026-04-30 13:35 40.89916 7.85805 30018 ft 430 kts 288°
2026-04-30 13:36 40.93835 7.70551 30023 ft 429 kts 288°
2026-04-30 13:36 40.96700 7.59358 30029 ft 429 kts 288°
2026-04-30 13:37 40.99570 7.48096 30036 ft 428 kts 288°
2026-04-30 13:38 41.02545 7.36357 30041 ft 428 kts 288°
2026-04-30 13:39 41.06471 7.20776 30039 ft 428 kts 287°
2026-04-30 13:40 41.09305 7.09472 30042 ft 428 kts 287°
2026-04-30 13:40 41.11203 7.01874 30041 ft 428 kts 287°
2026-04-30 13:41 41.13113 6.94195 30044 ft 427 kts 287°
2026-04-30 13:41 41.15037 6.86435 30047 ft 428 kts 287°
2026-04-30 13:42 41.16964 6.78638 30049 ft 428 kts 287°
2026-04-30 13:42 41.19818 6.67048 30048 ft 427 kts 287°
2026-04-30 13:43 41.21720 6.59291 30047 ft 426 kts 287°
2026-04-30 13:43 41.23588 6.51651 30047 ft 427 kts 287°
2026-04-30 13:44 41.25502 6.43789 30045 ft 427 kts 287°
2026-04-30 13:44 41.27408 6.35939 30049 ft 427 kts 287°
2026-04-30 13:45 41.30117 6.24726 30052 ft 427 kts 286°
2026-04-30 13:46 41.31948 6.17125 30062 ft 427 kts 286°
2026-04-30 13:46 41.33847 6.09213 30059 ft 427 kts 286°
2026-04-30 13:47 41.35651 6.01670 30066 ft 427 kts 286°
2026-04-30 13:47 41.37513 5.93862 30063 ft 428 kts 285°
2026-04-30 13:48 41.39337 5.86177 30064 ft 427 kts 285°
2026-04-30 13:48 41.41191 5.78341 30064 ft 426 kts 286°
2026-04-30 13:49 41.43047 5.70478 30064 ft 427 kts 285°
2026-04-30 13:49 41.44896 5.62616 30060 ft 426 kts 285°
2026-04-30 13:50 41.46726 5.54799 30064 ft 427 kts 285°
2026-04-30 13:50 41.49451 5.43109 30064 ft 427 kts 285°
2026-04-30 13:51 41.51265 5.35304 30065 ft 427 kts 285°
2026-04-30 13:51 41.53080 5.27462 30068 ft 427 kts 285°
2026-04-30 13:52 41.54888 5.19626 30062 ft 426 kts 285°
2026-04-30 13:52 41.56683 5.11810 30058 ft 427 kts 285°
2026-04-30 13:53 41.58468 5.04019 30074 ft 426 kts 285°
2026-04-30 13:53 41.60239 4.96261 30069 ft 426 kts 285°
2026-04-30 13:54 41.62036 4.88363 30074 ft 426 kts 285°
2026-04-30 13:54 41.63797 4.80593 30067 ft 427 kts 285°
2026-04-30 13:55 41.65556 4.72800 30073 ft 427 kts 285°
2026-04-30 13:55 41.67324 4.64938 30065 ft 428 kts 285°
2026-04-30 13:56 41.69080 4.57110 30069 ft 428 kts 285°
2026-04-30 13:56 41.70830 4.49280 30065 ft 427 kts 285°
2026-04-30 13:57 41.72572 4.41452 30064 ft 428 kts 285°
2026-04-30 13:57 41.74319 4.33580 30062 ft 428 kts 285°
2026-04-30 13:58 41.76923 4.21788 30060 ft 427 kts 284°
2026-04-30 13:59 41.78659 4.13891 30058 ft 428 kts 284°
2026-04-30 13:59 41.80374 4.06065 30056 ft 428 kts 284°
2026-04-30 14:00 41.82099 3.98158 30050 ft 428 kts 285°
2026-04-30 14:00 41.84682 3.86269 30057 ft 428 kts 285°
2026-04-30 14:01 41.86389 3.78370 30054 ft 428 kts 285°
2026-04-30 14:01 41.88110 3.70387 30051 ft 430 kts 284°
2026-04-30 14:02 41.89814 3.62446 30050 ft 431 kts 284°
2026-04-30 14:02 41.91519 3.54471 30050 ft 430 kts 284°
2026-04-30 14:03 41.93249 3.46351 30046 ft 430 kts 285°
2026-04-30 14:03 41.94967 3.38252 30048 ft 430 kts 285°
2026-04-30 14:04 41.96644 3.30315 30052 ft 429 kts 284°
2026-04-30 14:04 41.98327 3.22322 30041 ft 430 kts 284°
2026-04-30 14:05 42.00005 3.14322 30061 ft 431 kts 284°
2026-04-30 14:05 42.01681 3.06308 30046 ft 431 kts 284°
2026-04-30 14:06 42.04191 2.94236 30059 ft 431 kts 284°
2026-04-30 14:07 42.06663 2.82274 30056 ft 432 kts 284°
2026-04-30 14:08 42.09150 2.70179 30054 ft 432 kts 284°
2026-04-30 14:08 42.11619 2.58099 30060 ft 432 kts 284°
2026-04-30 14:09 42.13275 2.49954 30079 ft 432 kts 284°
2026-04-30 14:10 42.15741 2.37767 30076 ft 432 kts 284°
2026-04-30 14:10 42.17381 2.29610 30065 ft 432 kts 283°
2026-04-30 14:11 42.19013 2.21471 30068 ft 433 kts 283°
2026-04-30 14:11 42.20641 2.13322 30067 ft 434 kts 283°
2026-04-30 14:12 42.22261 2.05177 30068 ft 435 kts 283°
2026-04-30 14:12 42.23877 1.97018 30068 ft 436 kts 283°
2026-04-30 14:13 42.25487 1.88847 30078 ft 436 kts 283°
2026-04-30 14:13 42.27104 1.80616 30069 ft 436 kts 283°
2026-04-30 14:14 42.28707 1.72424 30090 ft 436 kts 283°
2026-04-30 14:14 42.30290 1.64300 30098 ft 436 kts 283°
2026-04-30 14:15 42.31898 1.56011 30118 ft 436 kts 283°
2026-04-30 14:15 42.33495 1.47741 30131 ft 436 kts 283°
2026-04-30 14:16 42.35075 1.39535 30144 ft 436 kts 283°
2026-04-30 14:16 42.36644 1.31333 30141 ft 436 kts 283°
2026-04-30 14:17 42.38220 1.23075 30125 ft 436 kts 283°
2026-04-30 14:17 42.39797 1.14765 30121 ft 437 kts 283°
2026-04-30 14:18 42.41374 1.06426 30100 ft 437 kts 283°
2026-04-30 14:18 42.43700 0.94068 30097 ft 439 kts 283°
2026-04-30 14:19 42.46017 0.81669 30103 ft 438 kts 283°
2026-04-30 14:20 42.47560 0.73361 30107 ft 438 kts 283°
2026-04-30 14:20 42.49851 0.60970 30102 ft 437 kts 283°
2026-04-30 14:21 42.51384 0.52632 30103 ft 437 kts 283°
2026-04-30 14:22 42.53661 0.40175 30102 ft 437 kts 283°
2026-04-30 14:22 42.55931 0.27677 30104 ft 438 kts 282°
2026-04-30 14:23 42.58927 0.11052 30106 ft 437 kts 282°
2026-04-30 14:24 42.61151 -0.01396 30111 ft 437 kts 282°
2026-04-30 14:25 42.64131 -0.18198 30112 ft 437 kts 282°
2026-04-30 14:26 42.66336 -0.30722 30114 ft 436 kts 282°
2026-04-30 14:27 42.68527 -0.43272 30106 ft 437 kts 282°
2026-04-30 14:27 42.69970 -0.51580 30104 ft 437 kts 282°
2026-04-30 14:28 42.72130 -0.64083 30098 ft 436 kts 282°
2026-04-30 14:28 42.73574 -0.72496 30091 ft 437 kts 282°
2026-04-30 14:29 42.76427 -0.89228 28890 ft 439 kts 282°
2026-04-30 14:30 42.78550 -1.01787 26723 ft 429 kts 282°
2026-04-30 14:31 42.79899 -1.09801 25629 ft 416 kts 282°
2026-04-30 14:31 42.81222 -1.17715 24522 ft 406 kts 282°
2026-04-30 14:31 42.81862 -1.21555 23959 ft 402 kts 282°
2026-04-30 14:32 42.83134 -1.29212 22870 ft 394 kts 282°
2026-04-30 14:32 42.83754 -1.32952 22354 ft 390 kts 282°
2026-04-30 14:32 42.84372 -1.36688 21830 ft 386 kts 282°
2026-04-30 14:33 42.84987 -1.40417 21313 ft 382 kts 282°
2026-04-30 14:33 42.86183 -1.47693 20305 ft 375 kts 282°
2026-04-30 14:33 42.86776 -1.51315 19797 ft 372 kts 282°
2026-04-30 14:34 42.87356 -1.54861 19290 ft 369 kts 282°
2026-04-30 14:34 42.87946 -1.58471 18783 ft 365 kts 282°
2026-04-30 14:34 42.88520 -1.62001 18280 ft 362 kts 282°
2026-04-30 14:34 42.89079 -1.65440 17799 ft 359 kts 281°
2026-04-30 14:35 42.90202 -1.72366 16810 ft 355 kts 281°
2026-04-30 14:35 42.90752 -1.75771 16296 ft 354 kts 281°
2026-04-30 14:35 42.91303 -1.79192 15784 ft 353 kts 281°
2026-04-30 14:36 42.91855 -1.82624 15255 ft 351 kts 281°
2026-04-30 14:36 42.92398 -1.86009 14751 ft 350 kts 281°
2026-04-30 14:36 42.92940 -1.89391 14239 ft 349 kts 281°
2026-04-30 14:36 42.93482 -1.92783 13722 ft 349 kts 281°
2026-04-30 14:37 42.94018 -1.96142 13204 ft 348 kts 281°
2026-04-30 14:37 42.94546 -1.99455 12711 ft 347 kts 281°
2026-04-30 14:37 42.95082 -2.02814 12200 ft 346 kts 281°
2026-04-30 14:37 42.95616 -2.06178 11674 ft 345 kts 281°
2026-04-30 14:38 42.96135 -2.09455 11183 ft 343 kts 281°
2026-04-30 14:38 42.96651 -2.12722 10870 ft 334 kts 281°
2026-04-30 14:38 42.97152 -2.15897 10691 ft 321 kts 281°
2026-04-30 14:38 42.97627 -2.18920 10517 ft 308 kts 281°
2026-04-30 14:39 42.98118 -2.21869 10332 ft 296 kts 285°
2026-04-30 14:39 42.98852 -2.24514 10180 ft 285 kts 295°
2026-04-30 14:39 42.99862 -2.26942 10028 ft 276 kts 300°
2026-04-30 14:40 43.02025 -2.31555 9274 ft 277 kts 301°
2026-04-30 14:40 43.03118 -2.33892 8890 ft 277 kts 301°
2026-04-30 14:40 43.04191 -2.36202 8542 ft 276 kts 301°
2026-04-30 14:40 43.05258 -2.38506 8182 ft 275 kts 301°
2026-04-30 14:41 43.06434 -2.40695 7809 ft 275 kts 315°
2026-04-30 14:41 43.08087 -2.42192 7454 ft 274 kts 336°
2026-04-30 14:41 43.09972 -2.43109 7124 ft 272 kts 341°
2026-04-30 14:41 43.11825 -2.43988 6768 ft 269 kts 334°
2026-04-30 14:42 43.13334 -2.45657 6407 ft 265 kts 306°
2026-04-30 14:42 43.14278 -2.47939 6117 ft 260 kts 296°
2026-04-30 14:42 43.15094 -2.50232 6058 ft 245 kts 296°
2026-04-30 14:42 43.15869 -2.52400 6052 ft 242 kts 296°
2026-04-30 14:43 43.16660 -2.54588 5693 ft 246 kts 296°
2026-04-30 14:43 43.17469 -2.56811 5292 ft 247 kts 297°
2026-04-30 14:43 43.18272 -2.59005 4939 ft 246 kts 297°
2026-04-30 14:43 43.19068 -2.61167 4589 ft 245 kts 298°
2026-04-30 14:44 43.19881 -2.63367 4352 ft 238 kts 298°
2026-04-30 14:44 43.20636 -2.65374 4337 ft 223 kts 297°
2026-04-30 14:44 43.21377 -2.67338 4330 ft 220 kts 297°
2026-04-30 14:44 43.22103 -2.69289 3998 ft 219 kts 297°
2026-04-30 14:45 43.22820 -2.71234 3515 ft 220 kts 298°
2026-04-30 14:45 43.23513 -2.73117 3130 ft 213 kts 298°
2026-04-30 14:45 43.24189 -2.74954 2865 ft 200 kts 298°
2026-04-30 14:45 43.24791 -2.76650 2608 ft 189 kts 297°
2026-04-30 14:46 43.25339 -2.78248 2419 ft 169 kts 296°
2026-04-30 14:46 43.25838 -2.79656 2155 ft 158 kts 299°
2026-04-30 14:46 43.26345 -2.80977 1833 ft 153 kts 300°
2026-04-30 14:46 43.26817 -2.82259 1528 ft 144 kts 299°
2026-04-30 14:47 43.27249 -2.83416 1335 ft 135 kts 300°
2026-04-30 14:47 43.27681 -2.84565 1116 ft 135 kts 299°
2026-04-30 14:47 43.28119 -2.85699 917 ft 135 kts 298°
2026-04-30 14:47 43.28540 -2.86857 757 ft 134 kts 299°
2026-04-30 14:48 43.28973 -2.87991 565 ft 134 kts 297°
2026-04-30 14:48 43.29393 -2.89126 346 ft 134 kts 297°
2026-04-30 14:48 43.29811 -2.90255 162 ft 131 kts 296°
2026-04-30 14:48 43.30181 -2.91257 139 ft 95 kts 297°
2026-04-30 14:49 43.30412 -2.91850 145 ft 46 kts 311°
2026-04-30 14:49 43.30540 -2.92001 148 ft 12 kts 325°
2026-04-30 14:49 43.30612 -2.92035 152 ft 8 kts 27°
2026-04-30 14:49 43.30626 -2.92015 155 ft 0 kts 65°
2026-04-30 14:50 43.30573 -2.91820 163 ft 20 kts 118°
2026-04-30 14:50 43.30511 -2.91645 162 ft 20 kts 114°
2026-04-30 14:51 43.30369 -2.91255 156 ft 24 kts 115°
2026-04-30 14:51 43.30306 -2.91075 152 ft 12 kts 102°
2026-04-30 14:51 43.30398 -2.90970 159 ft 4 kts 45°
2026-04-30 14:52 43.30413 -2.90934 160 ft 4 kts 73°
2026-04-30 14:52 43.30443 -2.90824 160 ft 7 kts 21°
2026-04-30 14:52 43.30474 -2.90804 162 ft 2 kts 26°